"Pseudo-MPEC" for P10LgOj

Created 2019 Jan 12 1:18:32 UT using Find_Orb

Click here for an explanation of pseudo-MPECs

 
 Astrometry: 
     P10LgOj  C2019 01 09a=E^90WjoLZa_d(3-NJA@^m#BAstrometry;EX2-sO-1B=iB-8oAF51
     P10LgOj  C2019 01 09/4O_[R[vQ9b928FD4=gWJ%F$h++dxoegD$Hw_y(yaAeSA/h^PycUF51
     P10LgOj  C2019 01 092mhQZ2Uredacted;\cn5lGwg3*/vLmM%V(^?,45'#I;iXQSLgytfF51
     P10LgOj |C2019 01 10d.yGm?=yS,q4/@)RRZ+$G*R?K9BFQKioYiL.Y%;eP)NJ2'lf'nK3807
     P10LgOj |C2019 01 104fMn/jtq#T2C*;qU'R1s?lAD/t-rpe-6lUE6On](7hw.w$;.R4!M807
     P10LgOj |C2019 01 10-9clickSq^jU8^7O57WmReEf@sDU/PC-*4F^_^(`m@x+IX@`5g9T807
     P10LgOj KC2019 01 10I.NB;2V;Jp,0mL.RufL6U:O/'T^g2i6Aq26)iRT_,`oSgW,wXRRr734
     P10LgOj KC2019 01 10i1w`C4if@w%L8t%Y+eu\D(4p=PJ-PD0here?Ua%SuH?oFEA^s!=Y734
     P10LgOj KC2019 01 115lZ9Sd]c)mKbF0?pVdkn8leq322w:f`P%::=WC0\_07pO-nRO,E:291
     P10LgOj KC2019 01 11`P[jUu+r-(\ihl^vgjtmv?.SQhP:c6DE[Ttf'ncK6/+N+MmuG`K@291
     P10LgOj KC2019 01 11ydEZ@FD!oa+qfZ9MR`g#Z6\+MkJforMjhMK,GK+@l)co:@.ArH.u291
     P10LgOj  C2019 01 11.19622 04 48 05.52 -07 12 46.5    ~1B5I 21.0 GVNEOCPI52
     P10LgOj  C2019 01 11.19788 04 48 05.53 -07 12 51.9    ~1B5I 21.6 GVNEOCPI52
     P10LgOj  C2019 01 11.20120 04 48 05.42 -07 13 01.7    ~1B5I 22.3 GVNEOCPI52
     P10LgOj pC2019 01 11kyGZL@MwKOr2R['l!i3Mku#Mt4nEk`x8@Xd`+;f53*Ge?OWurDHdL01
     P10LgOj pC2019 01 11m+FFw@$aZ0Fyj*FUJOgEHeGf_MW-gqUL=!I7%dLi@rB0Wi@'-@L'L01
     P10LgOj pC2019 01 115N!-)$DchpR/Cus9[6aWMBc9w[2Lq;Nexplanation$DR-us:^piL01

Station data:
(291) LPL/Spacewatch II  (N31.961669 W111.599905)  US/Arizona.  Observers J.
   V. Scotti, R. S. McMillan. 1.8-m f/2.7 reflector + CCD.
(734) Farpoint Observatory, Eskridge  (N38.890107 W96.001400)  US/Kansas.
   Observer G. Hug. 0.69-m reflector + CCD.
(807) Cerro Tololo Observatory, La Serena  (S30.169136 W70.805900)  Chile.
   1.5-m Ritchey-Chrétien.
(F51) Pan-STARRS 1, Haleakala  (N20.707235 W156.255910)  US/Hawaii.
   Observers N. Primak, A. Schultz, S. Watters, J. Thiel, T. Goggia. Measurer
   PS1 Science Consortium. 1.8-m Ritchey-Chrétien + CCD.
(I52) Steward Observatory, Mt. Lemmon Station  (N32.442547 W110.788920)
   US/Arizona.  Observers B. M. Africano, E. J. Christensen, G. A. Farneth,
   D. C. Fuls, A. R. Gibbs, A. D. Grauer, H. Groeller, J. A. Johnson, R. A.
   Kowalski, S. M. Larson, G. J. Leonard, R. L. Seaman, F. C. Shelly. 1.0-m
   reflector + CCD.
(L01) Višnjan Observatory, Tičan  (N45.290900 E13.749300)  Croatia.
   Observers K. Korlević, E. Pettarin. Measurer E. Pettarin. 1.0-m f/2.9
   reflector + CCD.

Orbital elements:  P10LgOj
   Perihelion 2018 Dec 16.835365 +/- 0.651 TT = 20:02:55 (JD 2458469.335365)
Epoch 2019 Jan 11.0 TT = JDT 2458494.5   Earth MOID: 0.2796   AutoNEOCP
M  11.22711875 +/- 0.30             (J2000 ecliptic)
n   0.44614669 +/- 0.00825          Peri.  177.26416 +/- 0.53
a   1.69622813 +/- 0.0209           Node   265.66110 +/- 0.040
e   0.2551286 +/- 0.00734           Incl.   31.58200 +/- 0.34
P   2.21/806.89d           H 21.6   G  0.15   U  9.5  
q 1.26347170 +/- 0.00313    Q 2.12898456 +/- 0.0382
From 17 observations 2019 Jan. 9-11; mean residual 0".42
Residuals in arcseconds: 
190109 F51  .10-  .12-    190110 734  .11+  .71+    190111 I52  .19+  .28-    
190109 F51  .03-  .03+    190110 734  .30+  .41-    190111 I52  1.2-  .18-    
190109 F51  .09-  .03-    190111 291  .33-  .31-    190111 L01  .38+  .69-    
190110 807  .17+  .02+    190111 291  .88-  .04+    190111 L01  .72+  .86+    
190110 807  .19+  .05+    190111 291  .80+  .08+    190111 L01  .26-  .08+    
190110 807  .03+  .07-    190111 I52  .11-  .18+    

Ephemerides (geocentric):
Date (UTC) HH   RA              Dec         delta   r     elong  mag " sig PA
---- -- -- --  -------------   -----------  ------ ------ -----  --- ---- ---
2019 01 12 01  04 48 08.418   -07 53 37.79  .40155 1.2795 130.1 21.7 .317  19
2019 01 12 02  04 48 08.626   -07 55 36.49  .40187 1.2795 130.0 21.7 .331  20
2019 01 12 03  04 48 08.840   -07 57 34.93  .40219 1.2796 130.0 21.7 .346  21
2019 01 12 04  04 48 09.060   -07 59 33.11  .40251 1.2796 129.9 21.7 .361  23
2019 01 12 05  04 48 09.285   -08 01 31.03  .40284 1.2797 129.9 21.7 .376  24
2019 01 12 06  04 48 09.517   -08 03 28.70  .40316 1.2797 129.8 21.7 .392  25
2019 01 12 07  04 48 09.754   -08 05 26.10  .40348 1.2798 129.8 21.7 .409  26
2019 01 12 08  04 48 09.997   -08 07 23.25  .40381 1.2798 129.7 21.7 .426  27
2019 01 12 09  04 48 10.246   -08 09 20.14  .40413 1.2799 129.7 21.7 .443  28
2019 01 12 10  04 48 10.501   -08 11 16.78  .40445 1.2799 129.6 21.7 .461  29
2019 01 12 11  04 48 10.762   -08 13 13.16  .40478 1.2800 129.6 21.7 .480  30
2019 01 12 12  04 48 11.028   -08 15 09.29  .40510 1.2800 129.5 21.7 .499  30
2019 01 12 13  04 48 11.301   -08 17 05.16  .40543 1.2801 129.5 21.7 .518  31
2019 01 12 14  04 48 11.579   -08 19 00.77  .40575 1.2801 129.4 21.7 .538  32
2019 01 12 15  04 48 11.863   -08 20 56.14  .40608 1.2802 129.4 21.7 .558  33
2019 01 12 16  04 48 12.152   -08 22 51.24  .40640 1.2802 129.3 21.7 .579  33
2019 01 12 17  04 48 12.448   -08 24 46.10  .40673 1.2803 129.3 21.7 .600  34
2019 01 12 18  04 48 12.749   -08 26 40.70  .40705 1.2803 129.2 21.7 .622  35
2019 01 12 19  04 48 13.056   -08 28 35.06  .40738 1.2804 129.2 21.7 .644  35
2019 01 12 20  04 48 13.369   -08 30 29.16  .40771 1.2804 129.1 21.7 .667  36
2019 01 12 21  04 48 13.688   -08 32 23.00  .40803 1.2805 129.1 21.7 .690  36
2019 01 12 22  04 48 14.012   -08 34 16.60  .40836 1.2805 129.0 21.7 .713  37
2019 01 12 23  04 48 14.342   -08 36 09.95  .40869 1.2806 129.0 21.7 .737  37
2019 01 13 00  04 48 14.678   -08 38 03.05  .40901 1.2806 128.9 21.7 .762  38
2019 01 13 01  04 48 15.019   -08 39 55.90  .40934 1.2807 128.9 21.7 .786  38
2019 01 13 02  04 48 15.367   -08 41 48.50  .40967 1.2808 128.8 21.7 .812  39
2019 01 13 03  04 48 15.720   -08 43 40.85  .41000 1.2808 128.8 21.7 .837  39
2019 01 13 04  04 48 16.079   -08 45 32.96  .41032 1.2809 128.7 21.7 .863  40
2019 01 13 05  04 48 16.443   -08 47 24.81  .41065 1.2809 128.7 21.7 .890  40
2019 01 13 06  04 48 16.813   -08 49 16.42  .41098 1.2810 128.6 21.7 .917  40
2019 01 13 07  04 48 17.189   -08 51 07.79  .41131 1.2810 128.6 21.7 .944  41
2019 01 13 08  04 48 17.571   -08 52 58.90  .41164 1.2811 128.5 21.7 .972  41
2019 01 13 09  04 48 17.958   -08 54 49.78  .41197 1.2811 128.5 21.7 1.00  41
2019 01 13 10  04 48 18.351   -08 56 40.40  .41230 1.2812 128.4 21.7 1.03  42
2019 01 13 11  04 48 18.749   -08 58 30.79  .41262 1.2812 128.4 21.7 1.06  42
2019 01 13 12  04 48 19.154   -09 00 20.92  .41295 1.2813 128.3 21.8 1.09  42
2019 01 13 13  04 48 19.564   -09 02 10.82  .41328 1.2813 128.3 21.8 1.12  43
2019 01 13 14  04 48 19.979   -09 04 00.47  .41361 1.2814 128.2 21.8 1.15  43
2019 01 13 15  04 48 20.400   -09 05 49.88  .41394 1.2814 128.2 21.8 1.18  43
2019 01 13 16  04 48 20.827   -09 07 39.04  .41427 1.2815 128.1 21.8 1.21  44
2019 01 13 17  04 48 21.260   -09 09 27.97  .41460 1.2815 128.1 21.8 1.24  44
2019 01 13 18  04 48 21.698   -09 11 16.65  .41493 1.2816 128.0 21.8 1.27  44
2019 01 13 19  04 48 22.142   -09 13 05.09  .41527 1.2816 128.0 21.8 1.31  44
2019 01 13 20  04 48 22.591   -09 14 53.29  .41560 1.2817 127.9 21.8 1.34  45
2019 01 13 21  04 48 23.046   -09 16 41.25  .41593 1.2818 127.9 21.8 1.37  45
2019 01 13 22  04 48 23.506   -09 18 28.97  .41626 1.2818 127.9 21.8 1.41  45
2019 01 13 23  04 48 23.972   -09 20 16.45  .41659 1.2819 127.8 21.8 1.44  45
2019 01 14 00  04 48 24.444   -09 22 03.70  .41692 1.2819 127.8 21.8 1.47  46